Location: Cucq
(50.4773°N, 1.6202°E)
Time: 15:48:04
(UTC+00:00)

SL-4 R/B - Pass Details

Date: 07 August 2020
Orbit: 428 x 665 km, 51.6° (Epoch: 18 September)

Event Time Altitude Azimuth Distance (km) Brightness Sun altitude
Exits shadow 00:22:14 14° 83° (E) 1,308 4.1 -23.0°
Drops below altitude 10° 00:22:48 10° 85° (E) 1,542 4.4 -23.0°
Sets 00:24:53 0° 87° (E) 2,398 5.4 -22.9°
